Location: Lafig�re
(44.4503°N, 4.0357°E)
Time: 15:37:01
(UTC+00:00)

Transit 2A Rocket - Pass Details

Date: 22 January 2021
Orbit: 594 x 908 km, 66.7° (Epoch: 06 March)

Event Time Altitude Azimuth Distance (km) Brightness Sun altitude
Rises 10:39:11 0° 156° (SSE) 3,371 9.8 23.6°
Reaches altitude 10° 10:43:19 10° 127° (SE) 2,369 8.6 23.9°
Maximum altitude 10:45:19 12° 105° (ESE) 2,191 7.9 24.0°
Drops below altitude 10° 10:47:16 10° 83° (E) 2,297 7.7 24.1°
Sets 10:51:06 0° 53° (NE) 3,145 8.0 24.3°
